Temp
-7 -7 -7 -7 -6 -6 -6 -6 -6 -6 -5 -5 -5 -5 -5 -5 -5 -5 -4 -4 -3 -3 -3 -3 -3 -3 -3 -4 -4 -4 -3 -3 -5 -5 -3 -3 -3 -3 -3 -3 -3 -3 -3 -3 -3
-7 -7 -7 -7 -6 -6 -6 -6 -6 -6 -5 -5 -5 -5 -5 -4 -4 -4 -4 -3 -3 -3 -3 -3 -3 -4 -4 -4 -4 -4 -5 -4 -5 -4 -4 -4 -3 -3 -3 -3 -3 -3 -3 -3 -3
-7 -7 -7 -7 -6 -6 -6 -6 -6 -6 -5 -5 -5 -5 -4 -4 -4 -4 -4 -3 -3 -3 -4 -4 -4 -5 -6 -5 -3 -3 -4 -5 -5 -4 -5 -4 -3 -4 -5 -4 -3 -3 -3 -3 -3
-6 -7 -7 -6 -6 -6 -6 -6 -6 -5 -5 -5 -5 -5 -4 -4 -3 -4 -3 -3 -3 -3 -4 -4 -5 -3 -4 -4 -3 -4 -4 -4 -3 -3 -4 -4 -4 -3 -4 -4 -4 -3 -3 -3 -3
-6 -6 -6 -6 -6 -6 -6 -6 -6 -5 -5 -6 -5 -5 -4 -4 -3 -3 -3 -3 -3 -3 -4 -3 -4 -4 -2 -4 -4 -5 -5 -6 -3 -3 -3 -4 -4 -4 -4 -4 -4 -4 -3 -3 -3
-5 -6 -6 -6 -6 -6 -6 -6 -5 -5 -5 -6 -5 -5 -4 -3 -3 -3 -3 -3 -3 -2 -3 -4 -3 -4 -3 -4 -5 -4 -5 -5 -5 -3 -4 -4 -3 -4 -4 -4 -4 -4 -4 -4 -4
-5 -5 -5 -5 -5 -6 -6 -6 -5 -5 -6 -6 -5 -5 -5 -4 -3 -3 -3 -3 -3 -3 -1 -2 -2 -2 -1 -1 -3 -3 -5 -5 -4 -4 -4 -4 -3 -4 -3 -4 -4 -4 -4 -4 -4
-4 -4 -4 -5 -5 -5 -5 -5 -5 -5 -5 -4 -6 -5 -5 -4 -4 -3 -4 -3 -3 -2 -2 -2 -2 -2 -2 -4 -4 -3 -3 -3 -4 -5 -4 -4 -4 -4 -3 -4 -3 -4 -4 -4 -4
-3 -4 -4 -4 -4 -4 -4 -4 -4 -4 -4 -4 -5 -4 -4 -4 -4 -4 -3 -3 -3 -3 -3 -2 -2 -3 -3 -4 -3 -4 -4 -5 -5 -5 -6 -5 -4 -4 -4 -3 -3 -4 -4 -4 -4
-3 -3 -3 -3 -3 -3 -3 -3 -3 -3 -3 -3 -4 -4 -4 -4 -4 -3 -3 -3 -3 -3 -3 -3 -2 -2 -4 -4 -4 -5 -4 -5 -5 -5 -5 -6 -5 -4 -5 -6 -4 -1 -4 -4 -4
-3 -3 -3 -2 -2 -2 -2 -2 -2 -2 -2 -2 -2 -2 -3 -3 -2 -2 -2 -2 -2 -3 -3 -3 -3 -4 -4 -4 -4 -3 -5 -5 -5 -3 -4 -5 -5 -5 -6 -6 -6 -4 -1 -3 -4
-2 -2 -2 -2 -2 -2 -2 -2 -2 -2 -2 -2 -2 -2 -2 -2 -2 -2 -3 -2 -2 -2 -3 -3 -4 -5 -4 -4 -3 -4 -4 -5 -5 -5 -4 -4 -4 -5 -5 -6 -5 -6 -5 -2 -3
-3 -2 -2 -2 -2 -2 -2 -2 -2 -2 -2 -1 -1 -1 -1 -1 -2 -1 -2 -2 -2 -2 -2 -4 -5 -5 -5 -3 -4 -4 -5 -5 -5 -4 -5 -5 -4 -4 -4 -5 -5 -5 -5 -5 -2
-3 -3 -2 -2 -2 -2 -2 -2 -2 -2 -2 -1 -1 -1 -1 -1 -1 -1 -2 -2 -1 -2 -2 -2 -6 -6 -6 -4 -3 -6 -5 -5 -4 -5 -5 -5 -4 -4 -5 -5 -5 -5 -6 -5 -4
-3 -3 -2 -2 -2 -2 -2 -2 -2 -2 -2 -2 -1 -2 -2 -1 -1 -1 -2 -1 -1 -2 -2 -3 -4 -4 -3 -3 -5 -6 -6 -6 -4 -3 -5 -4 -4 -5 -4 -6 -5 -5 -5 -5 -5
-3 -3 -3 -2 -2 -2 -2 -2 -2 -2 -3 -2 -2 -1 -1 -2 -1 -1 -1 -1 -2 -1 -1 -1 -3 -4 -5 -4 -5 -6 -3 -3 -3 -4 -4 -4 -4 -5 -4 -4 -5 -5 -6 -6 -5
-3 -3 -3 -3 -3 -3 -3 -3 -3 -3 -3 -2 -2 -2 -2 -2 -2 -2 -1 -2 -2 -2 -2 -2 -2 -3 -3 -2 -3 -3 -3 -3 -5 -5 -4 -4 -4 -4 -5 -5 -4 -4 -6 -4 -4
-3 -3 -3 -3 -3 -3 -3 -3 -3 -3 -6 -3 -2 -2 -2 -2 -2 -2 -2 -2 -2 -2 -2 -3 -5 -4 -5 -4 -3 -3 -5 -6 -6 -5 -4 -4 -4 -4 -3 -5 -5 -5 -4 -4 -4
-4 -3 -3 -3 -3 -3 -3 -3 -4 -5 -5 -3 -3 -3 -3 -3 -3 -2 -2 -2 -3 -2 -3 -3 -3 -5 -6 -6 -6 -5 -5 -5 -5 -5 -5 -4 -4 -4 -5 -6 -6 -6 -4 -4 -4
-5 -4 -4 -4 -3 -3 -3 -3 -4 -4 -3 -3 -4 -5 -5 -6 -4 -3 -4 -3 -3 -4 -4 -4 -4 -4 -5 -6 -6 -5 -5 -4 -6 -5 -5 -5 -5 -4 -4 -4 -7 -7 -7 -4 -4
-6 -5 -5 -5 -4 -4 -3 -4 -5 -5 -4 -4 -4 -5 -5 -6 -7 -7 -6 -6 -7 -6 -5 -6 -6 -5 -6 -6 -6 -6 -6 -5 -5 -5 -5 -5 -4 -4 -5 -6 -6 -6 -7 -7 -5
-6 -6 -6 -5 -5 -5 -5 -5 -5 -5 -4 -4 -4 -5 -4 -5 -6 -5 -5 -7 -7 -7 -7 -7 -7 -7 -7 -6 -6 -6 -6 -6 -6 -6 -6 -5 -4 -4 -5 -5 -7 -7 -7 -6 -6
-7 -6 -6 -6 -6 -6 -6 -6 -6 -6 -6 -5 -5 -5 -5 -5 -6 -5 -5 -6 -8 -8 -8 -7 -7 -7 -7 -6 -6 -6 -6 -6 -6 -6 -6 -5 -5 -5 -5 -6 -7 -7 -6 -6 -7
-8 -7 -7 -7 -7 -6 -6 -6 -6 -6 -6 -6 -6 -6 -6 -5 -6 -6 -6 -6 -8 -8 -7 -7 -7 -7 -7 -6 -6 -7 -7 -7 -7 -6 -6 -6 -6 -5 -5 -6 -7 -7 -6 -5 -7
-8 -8 -7 -7 -8 -7 -7 -7 -7 -7 -7 -7 -6 -6 -6 -6 -7 -7 -7 -7 -8 -8 -8 -8 -8 -8 -7 -8 -7 -7 -8 -7 -8 -8 -7 -7 -6 -6 -6 -7 -6 -6 -8 -7 -7
-8 -8 -8 -8 -8 -8 -8 -8 -8 -8 -7 -7 -7 -7 -7 -7 -7 -7 -8 -8 -8 -8 -9 -9 -9 -9 -9 -9 -8 -7 -7 -7 -7 -8 -7 -8 -7 -6 -6 -7 -7 -7 -7 -7 -8
-9 -9 -9 -9 -9 -9 -9 -9 -9 -9 -9 -8 -7 -7 -7 -8 -7 -6 -7 -7 -8 -8 -8 -9 -9 -9 -9 -9 -8 -8 -8 -8 -7 -8 -9 -8 -7 -8 -7 -7 -8 -8 -8 -7 -8
Height
5901 5902 5902 5902 5903 5904 5906 5907 5908 5908 5909 5910 5911 5912 5913 5915 5917 5919 5922 5925 5928 5931 5934 5937 5939 5940 5939 5941 5941 5941 5940 5937 5947 5946 5946 5944 5943 5942 5941 5940 5940 5939 5939 5939 5938
5902 5903 5904 5904 5905 5906 5908 5908 5909 5910 5910 5911 5913 5914 5915 5917 5919 5922 5925 5927 5929 5933 5937 5939 5940 5942 5945 5945 5946 5944 5946 5948 5950 5946 5947 5947 5945 5944 5943 5942 5942 5941 5940 5940 5940
5903 5904 5905 5906 5907 5908 5909 5910 5911 5911 5912 5913 5914 5915 5917 5918 5921 5923 5926 5930 5933 5936 5938 5939 5938 5940 5942 5945 5952 5943 5947 5951 5951 5950 5950 5948 5947 5946 5945 5944 5944 5943 5942 5942 5941
5904 5905 5906 5907 5908 5909 5911 5911 5912 5913 5913 5914 5915 5917 5919 5921 5924 5925 5928 5931 5934 5937 5938 5938 5936 5935 5942 5926 5928 5950 5954 5954 5951 5951 5951 5948 5949 5948 5948 5947 5945 5944 5943 5942 5942
5905 5906 5907 5908 5909 5911 5912 5913 5913 5914 5914 5915 5916 5919 5921 5923 5925 5927 5930 5933 5936 5939 5938 5940 5928 5936 5944 5951 5949 5953 5956 5955 5954 5952 5953 5949 5949 5949 5948 5946 5945 5944 5944 5943 5943
5906 5907 5908 5909 5910 5912 5912 5913 5914 5915 5916 5917 5918 5920 5922 5925 5927 5929 5932 5935 5937 5939 5941 5943 5945 5947 5949 5953 5953 5952 5956 5957 5955 5955 5954 5946 5947 5950 5950 5947 5945 5945 5944 5944 5943
5907 5909 5910 5910 5911 5912 5914 5914 5916 5917 5918 5919 5920 5922 5925 5928 5929 5931 5934 5937 5939 5940 5945 5944 5947 5949 5950 5953 5955 5953 5957 5958 5959 5957 5955 5954 5953 5953 5949 5948 5947 5944 5944 5943 5943
5908 5909 5910 5911 5912 5913 5914 5916 5917 5918 5920 5922 5923 5925 5927 5928 5931 5934 5936 5939 5940 5943 5946 5948 5949 5951 5953 5952 5957 5958 5959 5959 5959 5959 5957 5956 5954 5952 5950 5949 5947 5945 5944 5943 5942
5909 5910 5911 5912 5913 5914 5915 5917 5919 5920 5921 5925 5927 5929 5931 5932 5933 5935 5938 5941 5943 5945 5948 5949 5951 5954 5952 5949 5953 5959 5959 5963 5962 5960 5958 5957 5954 5952 5950 5947 5946 5946 5946 5944 5943
5911 5912 5912 5913 5914 5916 5917 5919 5920 5922 5924 5925 5927 5930 5931 5934 5936 5938 5941 5943 5946 5947 5949 5951 5953 5954 5954 5957 5962 5961 5961 5967 5966 5962 5959 5958 5958 5954 5952 5950 5945 5944 5945 5945 5944
5912 5913 5914 5915 5916 5917 5919 5920 5923 5925 5925 5928 5930 5932 5934 5936 5938 5940 5942 5945 5946 5949 5950 5952 5955 5955 5950 5958 5960 5962 5964 5967 5963 5960 5959 5957 5959 5958 5956 5950 5948 5944 5941 5942 5943
5912 5914 5915 5916 5917 5919 5920 5922 5924 5926 5928 5930 5931 5934 5936 5938 5941 5942 5944 5946 5947 5949 5950 5953 5954 5957 5958 5957 5960 5961 5964 5965 5964 5959 5957 5957 5955 5954 5952 5952 5949 5946 5943 5939 5940
5912 5913 5915 5917 5918 5919 5920 5922 5923 5925 5927 5929 5931 5933 5935 5938 5940 5942 5944 5945 5947 5948 5949 5950 5957 5955 5955 5957 5959 5961 5964 5965 5960 5957 5956 5955 5954 5953 5951 5948 5946 5944 5942 5939 5937
5911 5912 5913 5915 5918 5919 5920 5921 5923 5924 5926 5929 5930 5932 5934 5937 5939 5940 5942 5944 5945 5947 5947 5949 5953 5955 5956 5956 5956 5959 5960 5958 5956 5954 5953 5955 5953 5954 5941 5939 5948 5945 5942 5938 5934
5908 5910 5912 5914 5915 5917 5920 5921 5922 5923 5924 5928 5930 5931 5933 5936 5935 5938 5939 5941 5943 5944 5947 5949 5950 5952 5952 5953 5953 5955 5956 5953 5950 5950 5950 5951 5953 5943 5949 5946 5945 5944 5941 5939 5934
5904 5906 5908 5911 5913 5916 5917 5919 5921 5924 5922 5925 5928 5929 5931 5933 5934 5935 5938 5939 5941 5942 5943 5945 5946 5947 5948 5948 5949 5950 5948 5948 5948 5948 5949 5951 5952 5945 5947 5945 5941 5942 5940 5935 5934
5899 5902 5904 5907 5910 5912 5914 5917 5920 5921 5922 5924 5925 5927 5929 5931 5932 5933 5934 5936 5938 5939 5940 5941 5942 5943 5945 5945 5945 5945 5946 5946 5947 5950 5951 5947 5944 5948 5949 5941 5938 5936 5932 5928 5929
5893 5896 5899 5901 5904 5907 5910 5913 5917 5918 5921 5918 5922 5924 5926 5927 5928 5929 5931 5932 5934 5935 5936 5937 5940 5941 5941 5939 5940 5941 5943 5944 5942 5945 5947 5946 5941 5944 5937 5934 5933 5929 5925 5925 5924
5885 5888 5892 5895 5898 5901 5904 5908 5912 5913 5912 5913 5918 5919 5921 5923 5924 5924 5926 5927 5928 5930 5932 5932 5934 5939 5941 5938 5939 5938 5937 5939 5936 5938 5938 5939 5941 5944 5935 5928 5930 5924 5919 5922 5919
5877 5880 5884 5887 5890 5893 5897 5903 5904 5904 5906 5910 5913 5915 5918 5921 5919 5920 5920 5922 5923 5924 5925 5927 5926 5930 5932 5935 5933 5930 5933 5932 5933 5934 5931 5932 5932 5935 5929 5922 5924 5921 5917 5912 5915
5869 5872 5878 5879 5882 5885 5890 5895 5895 5897 5900 5904 5905 5907 5910 5914 5917 5915 5920 5921 5919 5918 5919 5921 5923 5924 5925 5927 5929 5930 5925 5924 5925 5927 5927 5927 5929 5928 5925 5910 5910 5912 5915 5906 5909
5860 5862 5869 5871 5875 5878 5882 5886 5887 5888 5889 5896 5897 5899 5901 5903 5905 5906 5911 5917 5915 5913 5914 5918 5917 5917 5919 5921 5923 5923 5923 5923 5924 5924 5922 5921 5921 5927 5916 5909 5913 5909 5905 5904 5904
5850 5853 5860 5862 5867 5870 5874 5876 5878 5880 5882 5886 5888 5890 5892 5894 5895 5897 5901 5905 5905 5903 5904 5906 5909 5911 5912 5916 5918 5919 5919 5918 5917 5918 5917 5919 5920 5927 5915 5909 5901 5895 5898 5896 5895
5842 5846 5851 5853 5857 5859 5863 5867 5869 5870 5873 5876 5878 5880 5883 5884 5887 5889 5891 5894 5897 5892 5895 5897 5899 5902 5905 5911 5913 5905 5908 5909 5908 5910 5911 5913 5915 5918 5903 5896 5891 5889 5889 5885 5884
5834 5836 5837 5847 5848 5850 5853 5856 5859 5862 5865 5866 5869 5872 5874 5876 5877 5878 5881 5884 5887 5887 5886 5889 5889 5892 5893 5896 5899 5902 5898 5897 5901 5898 5896 5898 5897 5895 5893 5887 5883 5881 5876 5877 5878
5827 5832 5837 5838 5841 5845 5846 5849 5851 5854 5857 5857 5860 5863 5865 5866 5866 5867 5870 5872 5876 5880 5881 5882 5882 5884 5884 5888 5890 5889 5892 5894 5889 5887 5889 5880 5888 5884 5884 5881 5880 5870 5833 5859 5866
5823 5825 5829 5831 5834 5837 5839 5840 5842 5844 5847 5846 5852 5852 5855 5855 5853 5856 5862 5864 5865 5868 5871 5874 5876 5877 5877 5881 5882 5875 5884 5887 5883 5876 5871 5870 5866 5869 5871 5870 5867 5865 5851 5852 5856
Wind_Speed
12 9 6 9 12 14 13 12 11 10 10 10 10 11 11 12 14 16 18 21 22 21 19 15 11 12 11 11 10 10 20 20 3 7 6 9 8 8 8 7 5 5 6 5 3
10 8 7 10 14 16 15 11 10 9 9 9 11 13 13 14 16 18 20 21 21 18 16 13 11 14 13 9 15 11 16 14 5 7 7 6 10 9 8 8 8 6 5 6 6
9 9 9 11 14 15 13 11 9 8 8 10 11 13 14 15 17 18 18 18 18 17 14 12 16 18 15 9 18 17 16 8 2 6 4 11 9 11 10 13 12 9 6 5 5
10 11 12 13 13 13 11 9 9 8 10 10 11 14 15 17 17 17 18 18 18 17 13 13 13 21 14 7 12 9 8 5 5 8 10 9 12 14 14 12 12 12 10 7 6
9 11 12 13 12 11 9 8 9 9 11 10 11 14 16 17 17 19 19 19 18 16 13 15 1 16 14 12 17 14 7 8 9 13 12 9 12 18 17 14 12 12 11 10 9
10 11 11 10 9 9 9 8 9 9 11 11 12 14 16 20 19 19 19 19 17 17 16 13 19 14 17 10 12 16 15 10 13 13 13 11 9 19 16 17 16 14 12 12 11
9 9 9 9 9 8 9 8 9 10 11 17 16 13 24 20 20 20 19 18 17 16 11 17 16 15 19 19 14 20 14 15 17 13 7 10 12 9 17 17 15 12 12 11 11
8 9 10 9 8 8 8 9 9 12 15 16 16 24 17 17 16 21 20 19 18 15 14 15 18 16 16 22 21 20 16 16 12 16 8 8 9 14 17 16 15 15 12 11 12
8 8 10 11 11 10 11 10 10 11 12 14 15 18 18 15 17 23 22 20 15 12 10 13 14 13 17 4 16 12 8 13 18 13 7 5 13 20 23 21 13 9 11 12 13
8 9 9 10 12 12 12 12 12 13 14 16 17 17 17 15 16 19 20 16 12 12 12 12 13 14 15 10 5 10 12 3 7 7 10 12 15 12 22 25 23 14 7 9 12
6 7 7 8 9 10 11 10 10 10 12 14 16 15 13 15 17 17 16 14 12 11 11 13 10 6 10 5 11 12 11 2 18 17 9 2 11 14 10 19 24 21 16 12 13
6 6 6 6 7 8 9 8 9 9 9 9 12 13 12 12 12 11 11 11 10 10 11 9 7 1 4 11 10 13 5 10 9 19 10 11 13 14 12 13 19 18 24 19 15
10 9 8 7 6 6 6 7 8 9 9 9 10 10 11 12 12 10 11 11 11 10 10 10 12 15 12 13 13 9 4 11 26 19 10 19 12 20 22 14 19 27 27 25 18
14 13 11 10 9 8 7 7 7 7 8 10 9 11 9 9 9 12 12 13 13 11 12 12 17 11 14 15 16 6 14 25 26 17 9 7 12 22 30 9 12 21 21 24 32
20 18 17 15 13 11 10 10 8 8 11 8 6 9 12 10 13 12 15 14 13 13 14 11 12 15 19 17 15 12 18 23 16 17 15 13 13 32 24 7 16 4 18 17 31
24 23 22 20 18 17 16 15 13 12 14 9 9 11 10 12 13 14 13 13 15 17 18 17 18 18 18 16 15 20 23 23 20 15 16 13 20 22 11 19 21 14 17 25 22
28 26 25 24 23 21 20 19 17 16 20 19 16 13 13 14 16 17 16 17 17 17 17 18 18 20 22 22 23 25 21 20 17 14 17 26 27 4 22 21 32 32 21 26 20
32 30 29 28 27 26 25 23 20 17 10 24 18 17 17 18 19 19 20 19 19 20 21 20 18 16 21 25 23 23 19 20 22 19 17 26 28 31 37 24 28 26 34 23 21
36 34 33 32 31 30 29 26 22 17 25 28 21 21 20 20 22 23 23 23 23 24 24 24 24 18 17 21 21 20 23 19 23 24 27 24 21 21 13 22 16 20 33 27 24
34 35 36 35 35 35 34 30 29 32 32 28 23 19 14 15 24 24 24 24 24 24 24 23 27 24 22 20 25 29 26 24 19 23 27 24 25 22 32 30 20 12 17 34 32
34 34 32 35 36 37 36 32 33 34 35 30 30 27 26 20 18 17 13 15 19 20 23 24 26 24 21 22 24 22 29 26 21 26 23 23 22 25 33 38 31 23 20 32 31
36 37 33 34 35 34 33 32 34 38 40 34 34 34 35 32 33 34 23 12 22 19 20 16 24 28 27 21 22 24 26 23 26 24 21 25 29 18 34 20 16 25 30 33 39
41 40 35 36 35 33 31 33 34 36 38 33 33 34 34 35 36 35 30 29 25 34 31 26 19 21 21 21 16 23 23 26 23 24 29 27 24 20 33 40 38 31 30 39 33
33 36 35 38 36 38 38 36 36 39 36 33 35 35 36 36 36 35 34 32 25 38 38 34 33 29 20 20 19 29 27 32 25 27 24 25 24 23 34 36 30 40 47 50 26
28 31 37 30 31 34 36 38 39 39 38 39 38 38 38 38 38 38 37 33 32 29 31 28 33 30 32 28 29 22 29 21 22 26 31 32 34 34 40 43 54 44 46 49 37
30 27 23 26 30 29 33 35 38 37 37 39 40 38 37 38 41 41 39 36 29 28 24 23 25 25 29 25 29 37 33 26 33 36 47 29 37 38 41 42 46 63 38 45 37
28 30 26 27 26 28 29 34 35 37 37 42 38 40 38 41 43 40 34 33 37 34 33 30 25 26 27 24 26 39 23 31 37 48 40 50 60 42 48 43 48 52 49 44 32
Wind_Direction
159 154 127 127 147 156 153 146 137 137 138 140 137 134 143 146 150 150 155 157 159 159 158 141 124 111 110 119 115 127 92 71 5 39 39 31 33 21 16 8 348 359 1 13 354
159 158 139 138 144 150 149 141 140 138 134 133 135 139 137 137 142 149 153 160 164 159 149 138 130 134 106 102 96 101 90 92 90 72 348 26 15 5 358 1 3 347 337 344 0
157 152 142 138 142 146 146 143 135 129 130 131 140 139 139 136 139 149 158 161 160 155 151 156 139 145 118 91 111 79 69 57 3 61 24 15 23 8 10 355 3 354 341 316 321
152 149 147 147 151 152 149 145 135 135 129 132 147 145 142 138 138 141 147 153 158 156 152 153 161 144 140 118 85 81 73 49 2 39 34 27 5 32 5 354 350 356 348 337 315
155 151 153 151 153 152 155 153 145 135 129 132 156 146 144 141 140 138 145 148 148 148 146 134 54 104 76 93 96 94 61 48 23 44 31 26 36 11 15 20 10 358 355 346 333
165 162 167 169 167 163 164 158 149 137 128 137 146 152 152 147 146 141 139 148 149 147 144 124 123 137 117 99 79 80 64 22 9 44 55 12 33 3 16 18 17 7 356 350 342
166 161 169 174 176 169 162 163 150 138 124 122 132 159 142 132 150 150 141 146 139 135 138 127 115 107 117 112 80 84 42 30 337 355 336 27 13 356 13 9 11 4 353 347 340
162 152 159 169 173 165 165 163 154 146 142 128 123 130 145 143 139 147 149 150 140 135 140 124 117 120 101 91 73 46 45 12 358 348 333 351 2 343 3 1 15 22 14 354 342
147 151 147 144 150 151 153 154 150 146 150 145 141 129 125 131 140 158 156 155 144 138 135 125 124 117 99 145 72 201 185 41 313 329 316 336 6 353 342 350 13 19 13 5 358
141 148 145 144 143 139 139 140 141 138 136 132 130 131 131 127 132 153 163 166 165 149 135 143 149 124 61 270 69 29 23 243 284 288 328 349 356 304 318 323 334 5 2 357 353
142 136 145 150 143 147 147 142 140 137 139 146 148 140 141 140 146 155 164 170 164 152 156 149 145 99 302 110 258 207 173 144 295 312 301 209 238 280 273 315 314 330 351 358 343
193 176 164 148 142 151 154 156 160 161 158 158 155 155 155 157 165 174 174 174 175 173 173 174 118 324 207 216 242 217 215 309 317 302 345 346 5 308 324 268 329 310 326 336 345
213 216 204 196 187 166 148 152 166 181 185 189 185 181 179 180 192 194 201 207 205 209 219 176 235 215 242 233 229 236 330 276 265 253 351 292 350 322 310 255 323 318 324 324 332
223 226 226 224 219 212 205 192 183 190 203 205 205 203 204 206 207 214 219 222 222 225 226 226 206 238 268 235 229 199 269 255 253 280 285 284 314 298 284 205 305 306 294 303 314
227 226 228 228 231 234 228 227 224 227 235 208 210 213 222 225 230 226 227 232 236 236 238 234 243 254 254 248 242 255 241 251 274 279 298 309 285 275 301 217 279 312 260 286 292
229 229 230 232 229 228 232 233 233 237 252 244 235 232 236 233 244 248 243 248 250 252 254 251 240 232 247 265 262 251 260 259 283 309 308 341 270 265 280 270 271 252 253 260 278
230 230 230 232 234 233 232 232 230 232 247 257 244 244 244 242 247 248 250 247 252 257 260 262 264 264 272 275 270 273 278 275 284 282 292 287 256 253 277 256 271 283 249 276 285
232 230 231 232 232 233 233 233 234 228 241 246 250 247 248 252 247 252 257 257 261 262 263 267 276 308 314 286 277 274 268 267 272 273 275 286 300 304 312 303 295 273 279 267 268
237 236 234 235 235 235 236 235 232 232 229 243 247 250 256 253 254 260 257 260 261 261 258 259 258 223 252 256 265 278 271 276 272 270 270 269 258 291 273 255 256 255 288 295 281
238 238 238 238 238 239 240 238 234 235 241 250 248 245 246 261 272 256 263 267 264 265 263 261 264 249 233 243 257 268 276 269 259 273 277 275 260 261 270 273 243 250 286 289 297
238 238 237 240 241 242 244 242 238 246 249 247 243 234 242 201 231 250 247 278 282 272 259 245 260 263 259 250 260 265 283 285 274 233 255 267 280 270 282 252 246 257 254 278 295
236 239 237 239 241 243 243 240 240 239 248 243 244 247 249 235 228 243 225 212 241 230 247 257 256 258 265 274 263 261 263 254 258 276 282 279 248 257 286 277 240 253 257 282 295
235 239 238 243 243 243 240 239 238 240 242 247 243 244 247 245 245 249 252 222 240 244 243 235 241 264 267 265 264 260 261 264 264 257 252 261 266 271 275 277 248 247 278 276 277
231 236 235 239 239 241 243 240 238 241 246 244 242 242 245 249 252 253 253 243 228 253 254 259 256 240 239 243 230 289 244 234 236 253 261 261 273 271 263 278 281 276 280 277 268
222 225 233 234 236 238 238 238 241 242 245 244 248 249 253 257 257 257 256 251 244 249 266 253 253 248 243 238 231 254 279 250 258 239 240 245 243 248 260 264 258 255 259 269 267
226 233 237 238 241 244 243 241 242 244 246 250 246 250 249 250 250 250 249 246 253 248 255 270 262 259 256 253 250 242 248 261 283 284 251 245 236 239 247 256 267 275 248 260 264
228 230 234 242 243 243 243 242 240 241 240 245 247 249 244 246 250 251 255 253 246 246 245 242 243 241 250 251 257 255 252 262 260 262 258 260 254 233 239 245 257 269 270 270 237